STARLINK-11546, 62835

Orbit data source: Space-Track

STARLINK-11546, 62835 is a payload satellite owned by SpaceX/Seattle (US) in LEO that was launched on Mon, 27 Jan 2025 UTC via an FALCON 9 launch vehicle from the Air Force Eastern Test Range (AFETR). Payload-class satellites include a variety of spacecraft equipped with specific instruments for various scientific and technological missions. These include communications satellites like Starlink; space stations such as the ISS; scientific satellites like the Hubble; Earth observation satellites from companies like Planet Labs, Umbra, and HawkEye 360; GPS; miniature CubeSats for education and research; and military/defense satellites.

Loading next visibility...
Identifier
62835, 2025-019G
Orbit
LEO
Last TLE update
8 hours ago
Origin
Manufacturer
SpaceX/Seattle
Mission
Operational Commercial Communications
Bus & Motor
STARLINK V2M, Unknown motor
Mass
730 kg wet, ~700 kg dry
Launch date (UTC)
2025-01-27 (5 months ago)
Launch vehicle
FALCON 9
Launch site
Air Force Eastern Test Range (AFETR)
Object type
Payload
Rocket body
Debris
Shape & HBR
Box + 2 Pan, 29 m
Radar Cross Section
36.964 m², Large (>1 m²)

Expand to show TLE details & history

TLE from 8 hours ago
0 STARLINK-11546
1 62835U 25019G   25183.86398623  .00208564  00000-0  15883-2 0  9997
2 62835  42.9995  12.3870 0001948 272.7855  87.2790 15.70841642 24583
Epoch: 2025-07-02T20:44Z
TLE epoch observation values (Epoch: 2025-07-02T20:44:08.41Z)
Latitude
0.00001°
Longitude
140.213°
Altitude
356.199 km
Speed
7.697 km/s
True Right ascension
00h 49m 32s
True Declination
0° 00' 00"
Sunlit
Object was in daylight at epoch
Visualization orbit readout
Latitude
29.46762°
Longitude
-78.89808°
Altitude
357.575 km
Speed
7.699 km/s
Apparent Right ascension
07h 45m 28s
Apparent Declination
-5° 28' 28"
Sunlit
Object is in daylight
Visualization observer readout
Local Sidereal Time
16:41:25
Azimuth
297.349° NW
Elevation
-36.261°
Doppler factor
1
Orbital elements
Apogee altitude
359.784 km
Perigee altitude
357.16 km
Semi-major axis
6,736.609 km
Eccentricity
0.00019
Inclination
42.9995°
RAAN
12.387°
Arg. of periapsis
272.7855°
True anomaly
Unknown
Mean anomaly
87.279°
Eccentric anomaly
Unknown
Mean motion
3.92538 °/min
Orbital period
91.71 mins
BSTAR
0.0015883
Loading maneuver chart data...
Loading SW <> Apogee altitude chart data...
Loading historical data...
Loading historical data...
Loading historical data...
Loading historical data...
Loading historical data...
Loading historical data...
Loading historical data...

STARLINK-11546 Visibility forecast

Observer location: undefined°, undefined°

Span
Click to sort rows by Start time (UTC) header in descending order
Start Az.
Max El. time (UTC)
Max El. Az.
Max El.
End time (UTC)
End Az.
4 mins2025-07-03 16:49:59.491Z248.442° W2025-07-03 16:51:59.491Z98.353° ESE44.578°2025-07-03 16:53:59.491Z72.785° E
4 mins2025-07-03 20:02:59.491Z296.372° NW2025-07-03 20:03:59.491Z320.562° NNW40.515°2025-07-03 20:06:59.491Z99.589° ESE
|